KA8CNI Weather Reports


time (UTC)temp
C
wind
direction
speed
KPH
gust
KPH
rain 1hr
cm
rain 24hr
cm
rain mn
cm
humidity
%
barometer
mb
20260503224514 15 202 19.3 0.0 0.00 0.00 0.00 49 1010.9
20260503223014 15 217 20.9 0.0 0.00 0.00 0.00 47 1010.9
20260503221512 15 247 22.5 0.0 0.00 0.00 0.00 46 1011.0
20260503220012 15 213 20.9 0.0 0.00 0.00 0.00 50 1011.1
20260503214511 15 223 24.1 0.0 0.00 0.00 0.00 47 1011.1
20260503213017 15 222 22.5 0.0 0.00 0.00 0.00 47 1011.2
20260503211510 15 241 22.5 0.0 0.00 0.00 0.00 48 1011.2
20260503210009 14 223 20.9 0.0 0.00 0.00 0.00 49 1011.3
20260503204507 14 237 24.1 0.0 0.00 0.00 0.00 49 1011.4
20260503203012 14 187 24.1 0.0 0.00 0.00 0.00 48 1011.5
20260503201506 15 240 22.5 0.0 0.00 0.00 0.00 48 1011.6
20260503200010 15 242 22.5 0.0 0.00 0.00 0.00 49 1011.9
20260503194505 15 253 22.5 0.0 0.00 0.00 0.00 47 1012.1
20260503193001 15 192 24.1 0.0 0.00 0.00 0.00 48 1012.3
20260503191607 15 265 24.1 0.0 0.00 0.00 0.00 49 1012.5
20260503190104 15 220 24.1 0.0 0.00 0.00 0.00 48 1012.8
20260503184555 15 214 24.1 0.0 0.00 0.00 0.00 50 1013.0
20260503183112 14 238 24.1 0.0 0.00 0.00 0.00 49 1013.1
20260503181618 14 212 22.5 0.0 0.00 0.00 0.00 48 1013.4
20260503180049 14 236 25.7 0.0 0.00 0.00 0.00 48 1013.5
20260503174545 13 240 24.1 0.0 0.00 0.00 0.00 55 1013.7
20260503173052 13 221 24.1 0.0 0.00 0.00 0.00 54 1013.9
20260503171541 13 216 24.1 0.0 0.00 0.00 0.00 54 1014.1
20260503100110 2 235 8.0 0.0 0.00 0.00 0.00 81 1015.1
20260503081549 2 240 8.0 0.0 0.00 0.00 0.00 83 1015.1
20260503071542 3 241 8.0 0.0 0.00 0.00 0.00 86 1015.2
20260503054536 3 223 0.0 0.0 0.00 0.00 0.00 88 1015.5
20260503053025 3 221 1.6 0.0 0.00 0.00 0.00 87 1015.5
20260503051527 3 220 1.6 0.0 0.00 0.00 0.00 86 1015.4
20260503050023 4 219 1.6 0.0 0.00 0.00 0.00 86 1015.5
20260503044530 4 209 0.0 0.0 0.00 0.00 0.00 85 1015.5
20260503043016 5 210 3.2 0.0 0.00 0.00 0.00 85 1015.6
20260503041513 5 207 1.6 0.0 0.00 0.00 0.00 84 1015.6
20260503040017 5 209 1.6 0.0 0.00 0.00 0.00 84 1015.7
20260503034514 5 217 0.0 0.0 0.00 0.00 0.00 83 1015.7
20260503033012 5 257 0.0 0.0 0.00 0.00 0.00 82 1015.7
20260503031510 5 257 0.0 0.0 0.00 0.00 0.00 82 1015.8
20260503030009 5 296 0.0 0.0 0.00 0.00 0.00 83 1015.8
20260503024509 5 313 0.0 0.0 0.00 0.00 0.00 83 1016.0
20260503023008 5 313 0.0 0.0 0.00 0.00 0.00 82 1016.1
20260503021508 5 317 0.0 0.0 0.00 0.00 0.00 83 1016.1
20260503020008 5 338 0.0 0.0 0.00 0.00 0.00 83 1016.0
20260503014507 5 338 0.0 0.0 0.00 0.00 0.00 82 1015.9
20260503013007 5 338 0.0 0.0 0.00 0.00 0.00 81 1015.8
20260503011506 5 338 0.0 0.0 0.00 0.00 0.00 81 1015.9
20260503010010 5 338 0.0 0.0 0.00 0.00 0.00 81 1015.8
20260503004505 5 338 0.0 0.0 0.00 0.00 0.00 81 1015.8
20260503003006 5 338 0.0 0.0 0.00 0.00 0.00 80 1015.6
20260503001505 5 338 0.0 0.0 0.00 0.00 0.00 78 1015.7
20260503000004 5 338 0.0 0.0 0.00 0.00 0.00 77 1015.6
20260502234508 5 338 0.0 0.0 0.00 0.00 0.00 76 1015.6
20260502233007 5 269 0.0 0.0 0.00 0.00 0.00 75 1015.6
20260502231503 5 270 0.0 0.0 0.00 0.00 0.00 73 1015.5
20260502230003 6 270 0.0 0.0 0.00 0.00 0.00 70 1015.5